SL-6 R/B(2)

Last updated on Mon Sep 21 2026 00:02:08 GMT+0000 (Coordinated Universal Time)

1 20666U 90055D 26263.44885178 .00000780 00000+0 68779-4 0 9998 2 20666 62.7818 311.1288 0055452 17.2874 343.0097 15.04289761967481
UTC large
Height (km)
Speed (km/s)
/
Latitude / Longitude
Inclination (degrees)
Orbital Period (minutes)
Azimuth
Elevation
Range (km)
Doppler Factor

Next 0 passes for location: London (51.5072 / 0.1276)

No passes found over London.
SL-6 R/B(2)